カタログに戻る

OPS 4682 DEB

運用中PO
NORAD 15529·DEBRIS·🇺🇸 United States

打ち上げ Apr 3, 1965 から Vandenberg Space Force Base

Loading…

次のパス (今後24時間)

TLE

最新Source: Space-Track

元期: Sep 14, 2026, 01:50 UTC

1 15529U 65027S   26257.07671450 -.00000377  00000-0 -12899-2 0  9994
2 15529  90.2432   8.2271 0033498 104.6753  71.2131 12.99303647168629

AllMySatでOPS 4682 DEBをリアルタイム追跡

Download on the App Store